Weather History for K0E0 - August, 2013

Change the Weather History Date:

Friday, August 16, 2013

  Actual Average (KABQ) Record (KABQ)
Temperature  
Mean Temperature 70 °F 76 °F  
Max Temperature 90 °F 87 °F 99 °F (1936)
Min Temperature 49 °F 65 °F 54 °F (1914)
Degree Days  
Heating Degree Days 0 0  
Month to date heating degree days 0  
Since 1 June heating degree days 4  
Since 1 July heating degree days 0  
Cooling Degree Days 4 11  
Month to date cooling degree days 190  
Year to date cooling degree days 1001  
Since 1 June cooling degree days 903  
Growing Degree Days 20 (Base 50)    
Moisture  
Dew Point 44 °F    
Average Humidity 47    
Maximum Humidity 93    
Minimum Humidity 13    
Precipitation  
Precipitation 0.00 in 0.05 in 0.52 in (2012)
Month to date precipitation 0.91  
Year to date precipitation 5.61  
Snow  
Snow 0.00 in - - ()
Month to date snowfall  
Since 1 June snowfall  
Since 1 July snowfall  
Snow Depth -    
Sea Level Pressure  
Sea Level Pressure 30.30 in    
Wind  
Wind Speed 6 mph (SE)    
Max Wind Speed 25 mph    
Max Gust Speed 30 mph    
Visibility 10 miles    
Events      
T = Trace of Precipitation, MM = Missing Value Source: NWS Daily Summary

Daily Weather History Graph

Daily Weather History Graph

Search for Another Location

Airport or City:

Trip Planner

Search our weather history database for the weather conditions in past years. The results will help you decide how hot, cold, wet, or windy it might be!

Date:

Astronomy

Aug. 16, 2013 Rise Set
Actual Time 6:25 AM MDT 7:50 PM MDT
Civil Twilight 5:58 AM MDT 8:17 PM MDT
Nautical Twilight 5:26 AM MDT 8:49 PM MDT
Astronomical Twilight 4:52 AM MDT 9:22 PM MDT
Moon 4:07 PM MDT (8/16) 1:34 AM MDT (8/16)
Length of Visible Light 14h 19m
Length of Day
13h 25m
Waxing Gibbous, 75% of the Moon is Illuminated
Aug 16
Waxing Gibbous
Aug 20
Full
Aug 28
Last Quarter
Sep 5
New
Sep 12
First Quarter

Hourly Weather History & Observations

Time (MDT) Temp. Dew Point Humidity Pressure Visibility Wind Dir Wind Speed Gust Speed Precip Events Conditions
12:15 AM 59.9 °F 50.9 °F 72% 30.31 in 10.0 mi SSE 5.8 mph - N/A   Clear
12:35 AM 60.6 °F 50.5 °F 69% 30.30 in 10.0 mi SE 6.9 mph - N/A   Clear
12:55 AM 59.9 °F 50.4 °F 71% 30.29 in 10.0 mi SE 5.8 mph - N/A   Clear
1:15 AM 59.2 °F 50.4 °F 73% 30.30 in 10.0 mi SE 3.5 mph - N/A   Clear
1:35 AM 59.4 °F 50.2 °F 72% 30.30 in 10.0 mi SE 6.9 mph - N/A   Clear
1:55 AM 59.9 °F 50.2 °F 70% 30.29 in 10.0 mi SSE 5.8 mph - N/A   Clear
2:15 AM 60.3 °F 50.2 °F 69% 30.29 in 10.0 mi SE 8.1 mph - N/A   Clear
2:35 AM 60.4 °F 50.2 °F 69% 30.29 in 10.0 mi SSE 8.1 mph - N/A   Clear
2:55 AM 60.1 °F 50.0 °F 69% 30.29 in 10.0 mi SE 4.6 mph - N/A   Clear
3:15 AM 59.0 °F 49.8 °F 72% 30.29 in 10.0 mi SSE 4.6 mph - N/A   Clear
3:35 AM 55.4 °F 49.3 °F 80% 30.29 in 10.0 mi South 5.8 mph - N/A   Clear
3:55 AM 53.6 °F 48.9 °F 84% 30.29 in 10.0 mi West 3.5 mph - N/A   Clear
4:15 AM 52.0 °F 47.7 °F 85% 30.29 in 10.0 mi Calm Calm - N/A   Clear
4:35 AM 51.6 °F 47.7 °F 86% 30.29 in 10.0 mi Calm Calm - N/A   Clear
4:55 AM 52.2 °F 48.4 °F 87% 30.30 in 10.0 mi NNW 3.5 mph - N/A   Clear
5:15 AM 50.9 °F 47.3 °F 87% 30.30 in 10.0 mi NNW 3.5 mph - N/A   Clear
5:35 AM 50.4 °F 46.8 °F 87% 30.31 in 10.0 mi NE 5.8 mph - N/A   Clear
5:55 AM 50.7 °F 48.0 °F 90% 30.32 in 10.0 mi NE 3.5 mph - N/A   Clear
6:15 AM 50.9 °F 48.2 °F 90% 30.31 in 10.0 mi Calm Calm - N/A   Clear
6:35 AM 49.3 °F 47.3 °F 93% 30.31 in 10.0 mi Calm Calm - N/A   Clear
6:55 AM 49.1 °F 46.9 °F 92% 30.31 in 10.0 mi Calm Calm - N/A   Clear
7:15 AM 51.3 °F 48.7 °F 91% 30.32 in 10.0 mi Calm Calm - N/A   Clear
7:35 AM 55.4 °F 50.5 °F 84% 30.32 in 10.0 mi NW 3.5 mph - N/A   Clear
7:55 AM 59.7 °F 51.1 °F 73% 30.32 in 10.0 mi North 4.6 mph - N/A   Clear
8:15 AM 62.4 °F 52.0 °F 69% 30.32 in 10.0 mi Calm Calm - N/A   Clear
8:35 AM 65.5 °F 51.6 °F 61% 30.33 in 10.0 mi NNE 3.5 mph - N/A   Clear
8:55 AM 67.5 °F 50.7 °F 55% 30.33 in 10.0 mi NNE 3.5 mph - N/A   Clear
9:15 AM 69.6 °F 49.3 °F 48% 30.33 in 10.0 mi NNE 3.5 mph - N/A   Clear
9:35 AM 72.0 °F 48.2 °F 43% 30.33 in 10.0 mi Calm Calm - N/A   Clear
9:55 AM 74.3 °F 48.7 °F 40% 30.33 in 10.0 mi North 5.8 mph - N/A   Clear
10:15 AM 75.6 °F 47.3 °F 37% 30.33 in 10.0 mi North 8.1 mph - N/A   Clear
10:35 AM 78.1 °F 47.1 °F 33% 30.32 in 10.0 mi NNW 8.1 mph - N/A   Clear
10:55 AM 79.0 °F 46.0 °F 31% 30.32 in 10.0 mi NNW 8.1 mph - N/A   Clear
11:15 AM 79.5 °F 46.0 °F 31% 30.32 in 10.0 mi North 5.8 mph - N/A   Clear
11:35 AM 80.4 °F 46.2 °F 30% 30.32 in 10.0 mi NNE 3.5 mph - N/A   Clear
11:55 AM 82.2 °F 46.2 °F 28% 30.31 in 10.0 mi NNW 6.9 mph - N/A   Clear
12:15 PM 82.9 °F 44.8 °F 26% 30.31 in 10.0 mi North 5.8 mph - N/A   Clear
12:35 PM 85.3 °F 44.6 °F 24% 30.30 in 10.0 mi NE 4.6 mph - N/A   Clear
12:55 PM 86.4 °F 41.2 °F 20% 30.29 in 10.0 mi West 6.9 mph 17.3 mph N/A   Clear
1:15 PM 87.4 °F 39.0 °F 18% 30.29 in 10.0 mi WNW 4.6 mph - N/A   Clear
1:35 PM 88.7 °F 34.3 °F 14% 30.28 in 10.0 mi NNW 11.5 mph 16.1 mph N/A   Clear
1:55 PM 90.3 °F 32.7 °F 13% 30.28 in 10.0 mi NNW 11.5 mph 16.1 mph N/A   Clear
2:15 PM 88.7 °F 30.7 °F 13% 30.28 in 10.0 mi North 3.5 mph - N/A   Clear
2:35 PM 84.6 °F 34.0 °F 16% 30.28 in 10.0 mi WSW 18.4 mph 25.3 mph N/A   Clear
2:55 PM 87.6 °F 35.2 °F 16% 30.27 in 10.0 mi WSW 25.3 mph - N/A   Scattered Clouds
3:15 PM 87.4 °F 33.8 °F 15% 30.26 in 10.0 mi SW 20.7 mph 29.9 mph N/A   Scattered Clouds
3:35 PM 87.3 °F 33.1 °F 14% 30.26 in 10.0 mi SSW 12.7 mph 20.7 mph N/A   Clear
3:55 PM 88.5 °F 33.4 °F 14% 30.26 in 10.0 mi South 6.9 mph - N/A   Clear
4:15 PM 88.5 °F 32.4 °F 13% 30.25 in 10.0 mi SSW 6.9 mph - N/A   Clear
4:35 PM 88.9 °F 33.1 °F 14% 30.25 in 10.0 mi NW 5.8 mph - N/A   Clear
4:55 PM 87.6 °F 32.9 °F 14% 30.24 in 10.0 mi SE 8.1 mph - N/A   Clear
5:15 PM 87.3 °F 33.1 °F 14% 30.23 in 10.0 mi SE 6.9 mph - N/A   Clear
5:35 PM 87.1 °F 32.7 °F 14% 30.23 in 10.0 mi Calm Calm - N/A   Clear
5:55 PM 86.7 °F 32.9 °F 15% 30.23 in 10.0 mi SSE 6.9 mph - N/A   Clear
6:15 PM 86.4 °F 33.3 °F 15% 30.24 in 10.0 mi SE 8.1 mph - N/A   Clear
6:35 PM 83.8 °F 39.0 °F 20% 30.25 in 10.0 mi ESE 18.4 mph 23.0 mph N/A   Clear
6:55 PM 81.9 °F 39.4 °F 22% 30.25 in 10.0 mi ESE 16.1 mph - N/A   Clear
7:15 PM 79.9 °F 40.3 °F 24% 30.26 in 10.0 mi SE 11.5 mph - N/A   Clear
7:35 PM 77.2 °F 41.4 °F 28% 30.27 in 10.0 mi SE 11.5 mph - N/A   Clear
7:55 PM 75.4 °F 41.2 °F 29% 30.28 in 10.0 mi ESE 16.1 mph 20.7 mph N/A   Clear
8:15 PM 73.8 °F 43.0 °F 33% 30.28 in 10.0 mi ESE 13.8 mph - N/A   Clear
8:35 PM 72.7 °F 43.7 °F 35% 30.29 in 10.0 mi SE 11.5 mph - N/A   Clear
8:55 PM 72.5 °F 44.6 °F 37% 30.31 in 10.0 mi SE 10.4 mph - N/A   Clear
9:15 PM 72.5 °F 44.8 °F 37% 30.33 in 10.0 mi SE 6.9 mph - N/A   Scattered Clouds
9:35 PM 71.1 °F 47.7 °F 43% 30.33 in 10.0 mi SE 12.7 mph - N/A   Mostly Cloudy
9:55 PM 69.6 °F 49.5 °F 49% 30.34 in 10.0 mi SE 9.2 mph - N/A   Scattered Clouds
10:15 PM 69.4 °F 49.3 °F 49% 30.34 in 10.0 mi South 8.1 mph - N/A   Clear
10:35 PM 69.1 °F 48.6 °F 48% 30.34 in 10.0 mi SE 9.2 mph - N/A   Clear
10:55 PM 70.9 °F 45.5 °F 40% 30.35 in 10.0 mi South 12.7 mph 16.1 mph N/A   Clear
11:15 PM 69.8 °F 46.8 °F 44% 30.34 in 10.0 mi SSE 12.7 mph - N/A   Clear
11:35 PM 68.4 °F 46.9 °F 46% 30.34 in 10.0 mi SW 5.8 mph - N/A   Clear
11:55 PM 66.7 °F 47.1 °F 49% 30.34 in 10.0 mi South 5.8 mph - N/A   Clear